[[{"header":{"parameterUnit":"m.s-1","parameterCategory":1,"la1":30.2991,"la2":30.254,"lo1":-89.0895,"lo2":-89.0444,"dy":0.0017,"dx":0.0017,"nx":28,"ny":28,"refTime":"2024-10-16T03:00:00:Z","depth":0,"parameterNumber":2,"parameterNumberName":"U-component_of_WINDS"},"data":[0,0,0,0,0,0,0,0,0,0,0,0,0,0,0,0,0,0,0,0,0,0,0,0,0,0,0,0,0,0,0,0,0,0,0,0,0,0,0,0,0,0,0,0,0,0,0,0,0,0,0,0,0,0,0,0,0,0,-1.5026,-1.5025,0,-1.4994,-1.4994,-1.4993,-1.4941,-1.494,-1.4939,-1.4938,-1.4907,-1.4907,-1.4907,0,0,0,0,0,0,0,0,0,0,0,0,0,-1.5043,-1.5043,-1.5026,-1.5025,-1.5025,-1.4994,-1.4994,-1.4993,-1.4941,-1.494,-1.4939,-1.4938,-1.4907,-1.4907,-1.4907,0,0,0,0,0,0,0,0,0,0,0,0,0,-1.5026,-1.5043,-1.5026,-1.4995,-1.4992,-1.4994,-1.4994,-1.4993,-1.4942,-1.494,-1.4939,-1.4938,-1.4907,-1.4907,-1.4907,-1.4937,0,0,-1.4908,-1.4908,0,0,0,0,0,0,0,0,-1.5027,-1.5025,-1.5,-1.4997,-1.4994,-1.497,-1.4988,-1.4974,-1.4942,-1.4961,-1.4938,-1.4937,-1.4929,-1.4928,-1.4925,-1.4935,-1.4934,-1.4908,-1.4908,-1.4908,-1.4908,0,0,0,0,0,0,0,-1.5028,-1.5026,-1.5013,-1.5,-1.4996,-1.4984,-1.498,-1.4985,-1.4954,-1.4959,-1.4955,-1.4952,-1.4927,-1.4925,-1.4924,-1.4933,-1.4908,-1.4908,-1.4908,-1.4908,-1.4967,-1.4969,0,0,0,0,0,0,-1.5033,-1.5027,-1.5014,-1.5012,-1.5007,-1.4985,-1.498,-1.4979,-1.4953,-1.4948,-1.4954,-1.495,-1.4925,-1.4924,-1.4922,-1.4956,-1.4908,-1.4908,-1.4908,-1.4966,-1.4968,-1.4969,0,0,0,0,0,0,-1.5034,-1.5033,-1.5015,-1.5019,-1.5016,-1.4986,-1.4985,-1.4979,-1.4977,-1.4949,-1.4943,-1.4957,-1.4924,-1.4922,-1.4934,-1.4954,-1.4908,-1.4908,-1.4964,-1.4966,-1.4969,-1.5023,0,0,0,0,0,0,-1.5035,-1.5033,-1.5044,-1.5019,-1.5016,-1.5027,-1.4987,-1.498,-1.4977,-1.4972,-1.4951,-1.4946,-1.4923,-1.4934,-1.4934,-1.4953,-1.4908,-1.4962,-1.4965,-1.4968,-1.5019,-1.5027,-1.5033,0,0,0,0,0,-1.5035,-1.506,-1.5045,-1.5043,-1.5028,-1.5028,-1.5026,-1.4999,-1.4979,-1.4989,-1.4972,-1.4946,-1.4952,-1.4935,-1.4935,-1.4955,-1.4961,-1.4964,-1.4968,-1.5016,-1.5025,-1.5033,0,0,0,0,0,0,-1.5088,-1.5057,-1.5039,-1.5056,-1.5045,-1.502,-1.5032,-1.501,-1.5005,-1.5,-1.4967,-1.4963,-1.4979,-1.4968,-1.495,-1.4983,-1.4952,-1.4956,-1.4989,-1.4998,-1.5005,-1.5008,-1.4908,0,0,0,0,0,-1.5102,-1.5104,-1.5077,-1.5095,-1.509,-1.5062,-1.5061,-1.5042,-1.5029,-1.5024,-1.5007,-1.4997,-1.4996,-1.4996,-1.4994,-1.5017,-1.5012,-1.5031,-1.5038,-1.5044,-1.5048,-1.506,-1.5068,-1.4981,-1.4981,-1.4981,0,0,-1.513,-1.5113,-1.5117,-1.5105,-1.5094,-1.5098,-1.5059,-1.5064,-1.5067,-1.5025,-1.5035,-1.5022,-1.5008,-1.5026,-1.5033,-1.5017,-1.5071,-1.5048,-1.5053,-1.5054,-1.5065,-1.5073,-1.508,-1.4983,-1.4983,-1.4982,0,0,-1.5184,-1.5171,-1.5185,-1.5175,-1.5159,-1.5141,-1.5144,-1.5122,-1.5112,-1.5121,-1.509,-1.5093,-1.5092,-1.5083,-1.5079,-1.513,-1.5107,-1.513,-1.5168,-1.518,-1.5187,-1.5193,-1.5213,-1.522,-1.5134,-1.5134,-1.5134,0,-1.5222,-1.5226,-1.5196,-1.5203,-1.52,-1.5161,-1.5176,-1.5168,-1.5152,-1.5151,-1.5133,-1.5132,-1.5119,-1.5135,-1.5148,-1.5145,-1.5149,-1.5133,-1.5189,-1.5194,-1.5199,-1.5218,-1.5225,-1.5137,-1.5137,-1.5136,-1.5136,0,-1.5273,-1.5277,-1.529,-1.5276,-1.5273,-1.5285,-1.5257,-1.5258,-1.5238,-1.5222,-1.5233,-1.5216,-1.5211,-1.5213,-1.5193,-1.5226,-1.5217,-1.5194,-1.5164,-1.5211,-1.5228,-1.5235,-1.5141,-1.514,-1.5139,-1.5139,0,0,-1.536,-1.5329,-1.5335,-1.5328,-1.5308,-1.531,-1.532,-1.5314,-1.5316,-1.5307,-1.5315,-1.5315,-1.5294,-1.5289,-1.5269,-1.528,-1.5323,-1.5256,-1.5255,-1.527,-1.536,-1.5378,-1.5386,-1.5307,-1.5308,-1.5309,-1.5361,0,-1.5411,-1.5425,-1.5399,-1.542,-1.5424,-1.5387,-1.5396,-1.5385,-1.537,-1.5371,-1.5354,-1.5355,-1.5327,-1.5324,-1.5333,-1.5316,-1.5341,-1.5312,-1.5316,-1.5316,-1.5322,-1.5395,-1.5414,-1.5464,-1.5367,-1.5369,-1.5369,0,-1.5472,-1.5466,-1.5487,-1.5466,-1.5467,-1.5475,-1.5468,-1.5469,-1.5456,-1.5444,-1.5439,-1.5415,-1.5423,-1.5393,-1.5405,-1.5386,-1.5386,-1.5378,-1.5379,-1.538,-1.5347,-1.5399,-1.5479,-1.5487,-1.5379,-1.5378,-1.5378,0,-1.5535,-1.5532,-1.5544,-1.554,-1.5515,-1.5522,-1.5512,-1.5497,-1.5496,-1.549,-1.5489,-1.5484,-1.5481,-1.5478,-1.5454,-1.5434,-1.547,-1.5437,-1.5461,-1.5462,-1.5472,-1.5472,-1.5555,-1.547,-1.5469,-1.5469,-1.5469,0,-1.5595,-1.561,-1.5572,-1.5581,-1.5597,-1.5566,-1.5583,-1.5569,-1.5557,-1.5562,-1.553,-1.5536,-1.5502,-1.5505,-1.5486,-1.55,-1.5499,-1.549,-1.5485,-1.5494,-1.5495,-1.5494,-1.5491,-1.5471,-1.5471,-1.547,-1.547,0,-1.5669,-1.5644,-1.5656,-1.5631,-1.5626,-1.5639,-1.5618,-1.5625,-1.5608,-1.5615,-1.5615,-1.5588,-1.5589,-1.5564,-1.556,-1.5547,-1.5571,-1.5559,-1.5575,-1.5572,-1.5598,-1.5597,-1.5685,-1.5696,-1.5602,-1.5603,-1.5604,0,-1.571,-1.572,-1.5697,-1.5698,-1.569,-1.5692,-1.5691,-1.5661,-1.566,-1.5647,-1.5656,-1.5654,-1.5651,-1.5655,-1.5636,-1.5633,-1.5622,-1.5653,-1.5621,-1.563,-1.5624,-1.5624,-1.5626,-1.566,-1.5661,-1.5662,-1.5663,0,-1.5785,-1.5772,-1.5771,-1.5765,-1.5764,-1.5759,-1.5751,-1.5754,-1.5721,-1.5723,-1.5723,-1.5721,-1.5718,-1.5717,-1.5711,-1.5701,-1.5677,-1.5673,-1.5678,-1.5688,-1.5698,-1.5695,-1.5595,-1.5671,-1.567,-1.567,-1.5669,-1.5669,-1.5844,-1.5853,-1.5838,-1.5838,-1.5829,-1.5822,-1.5828,-1.5811,-1.5811,-1.5806,-1.5788,-1.5792,-1.5779,-1.5768,-1.5761,-1.5764,-1.5749,-1.5757,-1.5759,-1.5762,-1.5768,-1.5696,-1.5763,-1.5763,-1.5762,-1.5762,-1.5762,0,-1.592,-1.5908,-1.5908,-1.5899,-1.5899,-1.5875,-1.5865,-1.5867,-1.5871,-1.5861,-1.5859,-1.5861,-1.586,-1.5841,-1.5838,-1.5844,-1.5833,-1.5845,-1.5845,-1.5843,-1.5781,-1.5777,-1.5854,-1.5854,-1.5854,-1.5854,-1.5854,-1.5854,-1.5959,-1.5972,-1.5958,-1.5967,-1.5955,-1.5959,-1.5955,-1.595,-1.5942,-1.5945,-1.5944,-1.5931,-1.5917,-1.5913,-1.5912,-1.5906,-1.5908,-1.5923,-1.5914,-1.5856,-1.5848,-1.5839,-1.5835,-1.5923,-1.5923,-1.5976,-1.5977,-1.5977]},{"header":{"parameterUnit":"m.s-1","parameterCategory":1,"la1":30.2991,"la2":30.254,"lo1":-89.0895,"lo2":-89.0444,"dy":0.0017,"dx":0.0017,"nx":28,"ny":28,"refTime":"2024-10-16T03:00:00:Z","depth":0,"parameterNumber":3,"parameterNumberName":"V-component_of_WINDS"},"data":[0,0,0,0,0,0,0,0,0,0,0,0,0,0,0,0,0,0,0,0,0,0,0,0,0,0,0,0,0,0,0,0,0,0,0,0,0,0,0,0,0,0,0,0,0,0,0,0,0,0,0,0,0,0,0,0,0,0,-1.9682,-1.9683,0,-1.9724,-1.9724,-1.9725,-1.9736,-1.9736,-1.9736,-1.9736,-1.9777,-1.9778,-1.9779,0,0,0,0,0,0,0,0,0,0,0,0,0,-1.9614,-1.9615,-1.9682,-1.9683,-1.9683,-1.9724,-1.9724,-1.9725,-1.9737,-1.9736,-1.9736,-1.9736,-1.9776,-1.9778,-1.9779,0,0,0,0,0,0,0,0,0,0,0,0,0,-1.9648,-1.9615,-1.9682,-1.9694,-1.9696,-1.9723,-1.9724,-1.9725,-1.9737,-1.9736,-1.9736,-1.9736,-1.9776,-1.9778,-1.978,-1.9798,0,0,-1.9785,-1.9786,0,0,0,0,0,0,0,0,-1.9646,-1.965,-1.9692,-1.9693,-1.9695,-1.9725,-1.9715,-1.9749,-1.9737,-1.9721,-1.9736,-1.9735,-1.976,-1.9763,-1.9771,-1.98,-1.9802,-1.9786,-1.9787,-1.9788,-1.9788,0,0,0,0,0,0,0,-1.9644,-1.9649,-1.9699,-1.9693,-1.9695,-1.9697,-1.9702,-1.9721,-1.9742,-1.9722,-1.9723,-1.9728,-1.976,-1.9769,-1.9772,-1.9802,-1.9786,-1.9787,-1.9788,-1.9789,-1.985,-1.985,0,0,0,0,0,0,-1.9639,-1.9647,-1.9697,-1.97,-1.9669,-1.9699,-1.9704,-1.9715,-1.9741,-1.9745,-1.9728,-1.9729,-1.9766,-1.977,-1.9774,-1.9798,-1.9788,-1.9789,-1.9791,-1.9849,-1.985,-1.985,0,0,0,0,0,0,-1.9638,-1.9644,-1.9696,-1.9674,-1.968,-1.97,-1.9713,-1.9716,-1.9725,-1.9746,-1.9749,-1.9734,-1.9766,-1.9771,-1.9792,-1.98,-1.979,-1.9792,-1.9849,-1.985,-1.985,-1.9847,0,0,0,0,0,0,-1.9636,-1.9643,-1.965,-1.9674,-1.9682,-1.9714,-1.9714,-1.9717,-1.9729,-1.973,-1.9752,-1.9755,-1.9766,-1.9789,-1.9794,-1.9802,-1.9794,-1.9848,-1.9849,-1.985,-1.9846,-1.9847,-1.9848,0,0,0,0,0,-1.9633,-1.9647,-1.9651,-1.9657,-1.9691,-1.9714,-1.9719,-1.9731,-1.9729,-1.9737,-1.975,-1.9755,-1.9798,-1.9791,-1.9797,-1.9806,-1.9848,-1.9849,-1.985,-1.9846,-1.9847,-1.9848,0,0,0,0,0,0,-1.9623,-1.965,-1.9655,-1.9676,-1.9693,-1.9716,-1.9726,-1.9732,-1.9749,-1.9748,-1.9763,-1.9768,-1.9788,-1.9799,-1.9791,-1.9826,-1.9823,-1.9825,-1.9818,-1.9819,-1.982,-1.9818,-1.9795,0,0,0,0,0,-1.9624,-1.964,-1.9663,-1.968,-1.9688,-1.9706,-1.9716,-1.9724,-1.9742,-1.9749,-1.9764,-1.978,-1.9798,-1.9809,-1.9826,-1.9848,-1.9853,-1.9857,-1.9857,-1.9858,-1.986,-1.9874,-1.9876,-1.9854,-1.9854,-1.9854,0,0,-1.9624,-1.9641,-1.9651,-1.9679,-1.9692,-1.971,-1.9711,-1.9729,-1.9742,-1.9751,-1.9773,-1.9785,-1.9804,-1.9826,-1.9836,-1.9836,-1.9867,-1.9859,-1.986,-1.9861,-1.9875,-1.9877,-1.9879,-1.9854,-1.9854,-1.9854,0,0,-1.9635,-1.9649,-1.9666,-1.968,-1.9701,-1.9713,-1.9717,-1.974,-1.9748,-1.977,-1.9778,-1.9793,-1.9823,-1.9837,-1.9848,-1.9865,-1.987,-1.987,-1.9875,-1.9888,-1.989,-1.9891,-1.9899,-1.9901,-1.9872,-1.9872,-1.9872,0,-1.9633,-1.966,-1.9673,-1.9691,-1.9704,-1.9714,-1.9731,-1.9744,-1.9769,-1.9778,-1.9776,-1.9815,-1.9828,-1.9854,-1.9859,-1.9867,-1.9873,-1.9868,-1.9888,-1.989,-1.9892,-1.9899,-1.9902,-1.9872,-1.9872,-1.9872,-1.9872,0,-1.9657,-1.9676,-1.9686,-1.9712,-1.9725,-1.9743,-1.9759,-1.9771,-1.9778,-1.979,-1.9813,-1.983,-1.9851,-1.9858,-1.9865,-1.9886,-1.9885,-1.9886,-1.9883,-1.9894,-1.9901,-1.9904,-1.9872,-1.9872,-1.9872,-1.9872,0,0,-1.9662,-1.9696,-1.97,-1.9713,-1.9737,-1.9752,-1.977,-1.9792,-1.9802,-1.9819,-1.9836,-1.9861,-1.9863,-1.9875,-1.9883,-1.9895,-1.9909,-1.9895,-1.9896,-1.9898,-1.9935,-1.9935,-1.9938,-1.9913,-1.9913,-1.9914,-1.9934,0,-1.9677,-1.971,-1.9724,-1.9751,-1.9769,-1.9779,-1.9795,-1.9812,-1.9824,-1.984,-1.9853,-1.9872,-1.9872,-1.9879,-1.9891,-1.9905,-1.9917,-1.9904,-1.9928,-1.9929,-1.9924,-1.9941,-1.9941,-1.9959,-1.9936,-1.9937,-1.9937,0,-1.9698,-1.9717,-1.9747,-1.9771,-1.9779,-1.9793,-1.9815,-1.983,-1.985,-1.9858,-1.9873,-1.9881,-1.9901,-1.9897,-1.9925,-1.9915,-1.9926,-1.9934,-1.9935,-1.9939,-1.9934,-1.9946,-1.9965,-1.9968,-1.9941,-1.9941,-1.9941,0,-1.97,-1.9733,-1.9756,-1.9766,-1.9794,-1.9804,-1.9816,-1.9836,-1.9849,-1.9867,-1.9876,-1.9896,-1.9908,-1.9924,-1.9937,-1.9933,-1.9965,-1.9961,-1.9972,-1.9972,-1.9979,-1.9979,-2.0001,-1.9984,-1.9984,-1.9984,-1.9984,0,-1.9716,-1.9734,-1.9757,-1.9771,-1.9792,-1.9807,-1.9827,-1.9839,-1.9857,-1.9874,-1.9883,-1.9899,-1.9915,-1.9933,-1.9943,-1.9966,-1.997,-1.9978,-1.9981,-1.9978,-1.9977,-1.9986,-1.9985,-1.9985,-1.9984,-1.9984,-1.9984,0,-1.9722,-1.9738,-1.9764,-1.9789,-1.9796,-1.981,-1.9832,-1.9846,-1.9858,-1.9879,-1.9885,-1.9905,-1.9926,-1.9941,-1.9968,-1.9976,-2.0,-2.0002,-1.9994,-1.9996,-2.0006,-2.0005,-2.0036,-2.0041,-2.0019,-2.0019,-2.002,0,-1.9731,-1.9745,-1.9773,-1.9785,-1.9798,-1.9817,-1.9831,-1.9846,-1.986,-1.9885,-1.9896,-1.9918,-1.9937,-1.9971,-1.9987,-2.0008,-2.0012,-2.0021,-2.0015,-2.0012,-2.0014,-2.0013,-2.0015,-2.0022,-2.0022,-2.0022,-2.0022,0,-1.9746,-1.9754,-1.9774,-1.9796,-1.9813,-1.9831,-1.985,-1.9859,-1.9878,-1.9893,-1.9916,-1.993,-1.9959,-1.9981,-2.0004,-2.0017,-2.0023,-2.0024,-2.0028,-2.0026,-2.0021,-2.0025,-1.9998,-2.0024,-2.0023,-2.0023,-2.0023,-2.0023,-1.9755,-1.9769,-1.9791,-1.9813,-1.9829,-1.9846,-1.9861,-1.9876,-1.9896,-1.9921,-1.9929,-1.9953,-1.9973,-2.0005,-2.0018,-2.0037,-2.0036,-2.0042,-2.0043,-2.0045,-2.0046,-2.0017,-2.0041,-2.0041,-2.0041,-2.0041,-2.0041,0,-1.9772,-1.9787,-1.9807,-1.9833,-1.9851,-1.9856,-1.9877,-1.9891,-1.9913,-1.9932,-1.995,-1.9977,-1.9999,-2.0018,-2.0041,-2.0053,-2.0056,-2.0058,-2.0058,-2.0061,-2.0044,-2.0039,-2.0055,-2.0055,-2.0055,-2.0055,-2.0055,-2.0055,-1.9782,-1.9807,-1.9818,-1.985,-1.9865,-1.9889,-1.9901,-1.9918,-1.9933,-1.9963,-1.9982,-1.9994,-2.0014,-2.0038,-2.0059,-2.0064,-2.0073,-2.0074,-2.008,-2.0064,-2.0062,-2.0061,-2.0056,-2.0076,-2.0076,-2.0096,-2.0096,-2.0097]}]]